Location: Unnamed
(23.5608°S, 46.6833°W)
Time: 10:27:18
(UTC-03:00)

VELOX 1 - Visible Passes

Search period start: 27 March 2023 00:00
Search period end: 06 April 2023 00:00
Orbit: 618 x 633 km, 98.4° (Epoch: 27 March)

Date Brightness Start Highest point End Pass type
(mag) Time Alt. Az. Time Alt. Az. Time Alt. Az.
27 Mar ? 05:15:01 10° E 05:16:07 11° E 05:17:14 10° ENE visible
28 Mar ? 05:32:00 10° SE 05:35:11 19° E 05:38:20 10° NE visible
29 Mar ? 05:50:11 10° SE 05:54:12 33° E 05:58:09 10° NNE visible
30 Mar ? 18:31:06 10° NNW 18:34:50 28° W 18:38:38 10° SW visible
31 Mar ? 18:51:04 10° NW 18:53:49 17° W 18:56:37 10° WSW visible
02 Apr ? 05:30:42 10° SE 05:33:42 18° E 05:36:40 10° NE visible
03 Apr ? 05:48:44 10° SE 05:52:38 30° E 05:56:30 10° NNE visible
04 Apr ? 18:29:20 10° NNW 18:33:11 31° W 18:37:05 10° SW visible
05 Apr ? 18:49:07 10° NW 18:52:05 18° W 18:55:06 10° SW visible
